Location: Austin
(30.3000°N, 97.7500°W)
Time: 05:12:11
(UTC-06:00)

Centaur AC-112 - Pass Details

Date: 03 March 2026
Orbit: 278 x 17965 km, 26.7° (Epoch: 5 March)

Event Time Altitude Azimuth Distance (km) Brightness Sun altitude
Rises 19:36:51 0° 271° (W) 15,332 11.6 -14.9°
Reaches altitude 10° 19:57:25 10° 272° (W) 10,147 9.9 -19.4°
Maximum altitude 20:22:22 67° 196° (SSW) 1,549 4.4 -24.7°
Enters shadow 20:24:23 45° 132° (SE) 1,476 4.0 -25.1°
